Weather History for Cumshewa Island, BC

Change the Weather History Date:

Wednesday, February 20, 2013

  Actual Average Record
Temperature  
Mean Temperature 40 °F -  
Max Temperature 44 °F - - ()
Min Temperature 37 °F - - ()
Degree Days  
Heating Degree Days 24    
Moisture  
Dew Point 35 °F    
Average Humidity 79    
Maximum Humidity 94    
Minimum Humidity 54    
Precipitation  
Precipitation 0.00 in - - ()
Sea Level Pressure  
Sea Level Pressure 29.72 in    
Wind  
Wind Speed 16 mph ()    
Max Wind Speed 30 mph    
Max Gust Speed -    
T = Trace of Precipitation, MM = Missing Value Source: Averaged Metar Reports

Daily Weather History Graph

Daily Weather History Graph

Search for Another Location

Airport:

Trip Planner

Search our weather history database for the weather conditions in past years. The results will help you decide how hot, cold, wet, or windy it might be!

Date:

Astronomy

Feb. 20, 2013 Rise Set
Actual Time 7:52 AM PST 6:08 PM PST
Civil Twilight 7:17 AM PST 6:43 PM PST
Nautical Twilight 6:37 AM PST 7:24 PM PST
Astronomical Twilight 5:57 AM PST 8:04 PM PST
Moon 1:10 PM PST (2/20) 4:43 AM PST (2/20)
Length of Visible Light 11h 26m
Length of Day
10h 16m
Waxing Gibbous, 77% of the Moon is Illuminated
Feb 20
Waxing Gibbous
Feb 25
Full
Mar 4
Last Quarter
Mar 11
New
Mar 19
First Quarter

Hourly Weather History & Observations

Time (PST) Temp. Windchill Dew Point Humidity Pressure Visibility Wind Dir Wind Speed Gust Speed Precip Events Conditions
12:00 AM 41.7 °F 32.6 °F 34.7 °F 76% 29.81 in - South 20.7 mph - N/A   Unknown
1:00 AM 41.9 °F 32.8 °F 35.1 °F 77% 29.78 in - South 20.7 mph - N/A   Unknown
2:00 AM 41.9 °F 32.3 °F 36.5 °F 81% 29.75 in - South 23.0 mph - N/A   Unknown
3:00 AM 41.4 °F 31.9 °F 37.6 °F 86% 29.74 in - South 21.9 mph - N/A   Unknown
4:00 AM 41 °F - 37 °F 82% 29.69 in - South 25.3 mph - -  
4:00 AM 41.4 °F 31.2 °F 37.4 °F 86% 29.69 in - South 25.3 mph - N/A   Unknown
6:00 AM 40.3 °F 31.0 °F 37.2 °F 89% 29.72 in - South 19.6 mph - N/A   Unknown
7:00 AM 39.4 °F 35.2 °F 36.3 °F 89% 29.73 in - West 5.8 mph - N/A   Unknown
8:00 AM 40.1 °F 33.6 °F 35.8 °F 85% 29.77 in - WNW 10.4 mph - N/A   Unknown
9:00 AM 41.2 °F 36.0 °F 34.5 °F 77% 29.79 in - WNW 8.1 mph - N/A   Unknown
10:00 AM 43 °F - 34 °F 62% 29.81 in - WNW 6.9 mph - -  
10:00 AM 42.8 °F 38.6 °F 34.3 °F 72% 29.81 in - WNW 6.9 mph - N/A   Unknown
12:00 PM 44.1 °F 40.1 °F 34.5 °F 69% 29.84 in - West 6.9 mph - N/A   Unknown
1:00 PM 44.1 °F 38.1 °F 32.9 °F 65% 29.83 in - WSW 11.5 mph - N/A   Unknown
2:00 PM 43.9 °F 39.3 °F 31.6 °F 62% 29.81 in - WSW 8.1 mph - N/A   Unknown
3:00 PM 42.4 °F 39.6 °F 35.1 °F 75% 29.80 in - West 4.6 mph - N/A   Unknown
4:00 PM 43 °F - 32 °F 54% 29.77 in - SW 17.3 mph - -  
4:00 PM 43.3 °F 35.5 °F 32.0 °F 64% 29.77 in - SW 17.3 mph - N/A   Unknown
5:00 PM 42.6 °F 35.6 °F 33.1 °F 69% 29.74 in - South 13.8 mph - N/A   Unknown
6:00 PM 40.1 °F 31.0 °F 34.7 °F 81% 29.70 in - South 18.4 mph - N/A   Unknown
8:00 PM 37.0 °F 25.4 °F 34.7 °F 91% 29.60 in - South 25.3 mph - N/A   Unknown
9:00 PM 37.8 °F 25.4 °F 36.0 °F 93% 29.55 in - South 29.9 mph - N/A   Unknown
10:00 PM 39 °F - 37 °F 92% 29.50 in - South 27.6 mph - -  
10:00 PM 39.0 °F 27.6 °F 37.4 °F 94% 29.50 in - South 27.6 mph - N/A   Unknown
11:00 PM 39.4 °F 29.0 °F 37.4 °F 93% 29.45 in - South 23.0 mph - N/A   Unknown